This demonstration page uses our WeatherBlox Daily Observations layout. Learn more.

Left ArrowRight Arrow

36.19886, -115.1175

Hourly Observations for May 12, 2021

Temp ( °F °C ) Dew Point ( °F °C ) Humidity (%) Winds ( mph kmh ) Pressure ( in mb ) Visibility ( mi km ) Precip ( " mm )
12:53 am 00:53 Clear 71 21.7 27 -2.8 19 19 NW 6 9 29.90 1013 10 16 N/A
1:53 am 01:53 Clear 71 21.7 21 -6.1 15 15 WNW 5 7 29.90 1013 10 16 N/A
2:53 am 02:53 Clear 69 20.6 18 -7.8 14 14 N N/A 29.90 1013 10 16 N/A
3:53 am 03:53 Clear 68 20 22 -5.6 17 17 W 6 9 29.92 1013 10 16 N/A
4:53 am 04:53 Clear 69 20.6 21 -6.1 16 16 N N/A 29.93 1014 10 16 N/A
5:53 am 05:53 Sunny 69 20.6 20 -6.7 15 15 S 3 6 29.95 1014 10 16 N/A
6:53 am 06:53 Sunny 71 21.7 19 -7.2 14 14 N N/A 29.97 1015 10 16 N/A
7:53 am 07:53 Sunny 74 23.3 18 -7.8 12 12 SSW 6 9 30.00 1016 10 16 N/A
8:53 am 08:53 Sunny 76 24.4 16 -8.9 10 10 SE 6 9 30.00 1016 10 16 N/A
9:53 am 09:53 Sunny 80 26.7 13 -10.6 8 8 N N/A 30.01 1016 10 16 N/A
10:53 am 10:53 Sunny 85 29.4 13 -10.6 7 7 undefined N/A 30.00 1016 10 16 N/A
11:53 am 11:53 Sunny 88 31.1 12 -11.1 6 6 ENE 10 17 29.98 1015 10 16 N/A
12:53 pm 12:53 Sunny 89 31.7 13 -10.6 6 6 ESE 8 13 29.97 1015 10 16 N/A
1:53 pm 13:53 Sunny 92 33.3 14 -10 5 5 S 9 15 29.93 1014 10 16 N/A
2:53 pm 14:53 Sunny 94 34.4 17 -8.3 6 6 SE 14 22 29.90 1013 10 16 N/A
3:53 pm 15:53 Sunny 95 35 16 -8.9 5 5 SE 13 20 29.87 1011 10 16 N/A
4:53 pm 16:53 Sunny 95 35 15 -9.4 5 5 SE 8 13 29.84 1011 10 16 N/A
5:53 pm 17:53 Sunny 95 35 16 -8.9 5 5 ESE 14 22 29.83 1010 10 16 N/A
6:53 pm 18:53 Sunny 94 34.4 15 -9.4 5 5 ESE 12 19 29.83 1010 10 16 N/A
7:53 pm 19:53 Clear 91 32.8 16 -8.9 6 6 SSE 14 22 29.84 1011 10 16 N/A
8:53 pm 20:53 Clear 88 31.1 17 -8.3 7 7 N N/A 29.87 1012 10 16 N/A
9:53 pm 21:53 Clear 87 30.6 18 -7.8 8 8 N N/A 29.88 1012 10 16 N/A
10:53 pm 22:53 Clear 82 27.8 21 -6.1 10 10 W 8 13 29.89 1012 10 16 N/A
11:53 pm 23:53 Clear 79 26.1 22 -5.6 12 12 WNW 5 7 29.89 1012 10 16 N/A

Powered by AerisWeather